Skip Page Navigation
NASA JPL Caltech
NASA Logo - Jet Propulsion Laboratory + View the NASA Portal
+ Near-Earth Object (NEO) Program
Search JPL
JPL Home Earth Solar System Stars & Galaxies Technology
JPL Solar System Dynamics
BODIES ORBITS EPHEMERIDES TOOLS PHYSICAL DATA DISCOVERY FAQ SITE MAP
JPL Small-Body Database Browser
Search: [ help ]  
30852 Debye (1991 TR6)
Classification: Main-belt Asteroid          SPK-ID: 2030852
Ephemeris | Orbit Diagram | Orbital Elements | Physical Parameters | Discovery Circumstances | Close-Approach Data ]

[ show orbit diagram ]
Orbital Elements at Epoch 2457000.5 (2014-Dec-09.0) TDB
Reference: JPL 7 (heliocentric ecliptic J2000)
 Element Value Uncertainty (1-sigma)   Units 
e .1562748214790241 4.6694e-08  
a 2.168942493280915 1.311e-08 AU
q 1.829991392345171 9.7807e-08 AU
i 2.326688222210521 5.9771e-06 deg
node 299.3539332780402 0.00012195 deg
peri 310.8683814693078 0.00012386 deg
M 192.0309169249619 2.5081e-05 deg
tp 2457544.873948737146
(2016-Jun-05.37394874)
8.3558e-05 JED
period 1166.730317018062
3.19
1.0578e-05
2.896e-08
d
yr
n .3085545946213951 2.7976e-09 deg/d
Q 2.50789359421666 1.5159e-08 AU
  Orbit Determination Parameters
   # obs. used (total)      917  
   data-arc span      8487 days (23.24 yr)  
   first obs. used      1991-10-02  
   last obs. used      2014-12-27  
   planetary ephem.      DE431  
   SB-pert. ephem.      SB431-BIG16  
   condition code      0  
   fit RMS      .50713  
   data source      ORB  
   producer      Otto Matic  
   solution date      2015-Jan-08 03:22:23  

Additional Information
 Earth MOID = .818429 AU 
 T_jup = 3.673 
[ show covariance matrix ]

Ephemeris | Orbit Diagram | Orbital Elements | Physical Parameters | Discovery Circumstances | Close-Approach Data ]

Physical Parameter Table
Parameter Symbol Value Units Sigma Reference Notes
absolute magnitude H 15.1 mag n/a MPO267816  

30852 Debye           Discovered 1991 Oct. 2 by F. Borngen and L. D. Schmadel at Tautenburg.
Dutch-American physical chemist Peter Debye (1884-1966), recipient of the 1936 Nobel prize in chemistry, carried out theoretical and experimental research in quantum physics, investigating molecular and crystalline structures, dipole moments, diffraction effects by x-rays and the scattering of light in gases.
NOTE: some special characters may not display properly (any characters within {} are an attempt to place the proper accent above a character)
Reference: 20020427/MPCPages.arcLast Updated: 2003-10-02

[ show close-approach data ]
Alternate Designations
 1991 TR6 = 1994 PJ8 
Ephemeris | Orbit Diagram | Orbital Elements | Physical Parameters | Discovery Circumstances | Close-Approach Data ]
ABOUT SSD CREDITS/AWARDS PRIVACY/COPYRIGHT GLOSSARY LINKS
FirstGov 2015-Jan-30 23:16 UT
(server date/time)  
NASA Home Page
Site Manager:   Donald K. Yeomans
Webmaster  Alan B. Chamberlin